Regional Weather Roundup
Issued by NWS

Home | Current Version | Previous Version | Text Only | Print | Product List | Glossary On
Versions: 1 2 3 4 5 6 7 8 9 10 11 12 13 14 15 16 17 18 19 20 21 22 23 24 25 26 27 28 29 30 31 32 33 34 35 36 37 38 39 40 41 42 43 44 45 46 47 48 49 50
825
ASUS43 KDTX 171110
RWRMI
MICHIGAN HOURLY REGIONAL WEATHER ROUNDUP
NATIONAL WEATHER SERVICE DETROIT/PONTIAC MI
ISSUED BY NATIONAL WEATHER SERVICE GRAND RAPIDS MI
700 AM EDT THU AUG 17 2017

NOTE: "FAIR" INDICATES FEW OR NO CLOUDS BELOW 12,000 FEET WITH NO
SIGNIFICANT WEATHER AND/OR OBSTRUCTION TO VISIBILITY.

MIZ047>049-052>055-059>063-066>070-074>076-081>083-171200-
SOUTHEAST LOWER MICHIGAN

CITY           SKY/WX    TMP DP  RH WIND       PRES   REMARKS
ADRIAN         CLOUDY    68  67  96 CALM      29.90S
ALMA           RAIN      67  65  94 SE8       29.86F
ANN ARBOR      LGT RAIN  69  68  96 NE3       29.89F
BAD AXE        CLOUDY    69  58  68 SE7       29.91F
DETROIT CITY   CLOUDY    73  64  73 SE8       29.91S
DETROIT        RAIN      73  68  84 CALM      29.91F
FLINT          LGT RAIN  68  63  84 SE8       29.89S
GROSSE ILE     LGT RAIN  73  70  88 SE5       29.88F
HILLSDALE      LGT RAIN  68  66  94 SE5       29.88F
HOWELL         HVY RAIN  67  66  95 SE6       29.89F

CITY           SKY/WX    TMP DP  RH WIND       PRES   REMARKS
JACKSON        CLOUDY    71  67  87 SE6       29.88F
LANSING        CLOUDY    69  66  90 SE9       29.86F
MASON          CLOUDY    70  66  88 SE7       29.88S
MONROE         RAIN      71  70  97 S5G17     29.88F
MT. CLEMENS    CLOUDY    72  66  81 E9        29.90F
PONTIAC        CLOUDY    71  64  78 SE8       29.90S
PORT HOPE        N/A     70  63  78 SE14      29.90S
PORT HURON     CLOUDY    70  63  78 SE8       29.93S
TRI CITIES     LGT RAIN  68  64  87 S7        29.87S
YPSILANTI      HVY RAIN  71  70  96 SE7       29.91S VSB 3/4
$$
MIZ043>046-050>051-056>058-064>065-071>073-077>080-171200-
SOUTHWEST LOWER MICHIGAN

CITY           SKY/WX    TMP DP  RH WIND       PRES   REMARKS
BATTLE CREEK   CLOUDY    70  69  97 S10       29.85
BENTON HARBOR  CLOUDY    74  70  87 S8        29.81
BIG RAPIDS     CLOUDY    64  62  92 SE5       29.82F
COLDWATER      LGT RAIN  71  71 100 S5        29.87F
HOLLAND        MOCLDY    72  70  93 S9        29.80
GRAND RAPIDS   CLOUDY    68  68 100 SE9       29.82F
KALAMAZOO      CLOUDY    72  68  87 S8        29.84
MARSHALL       CLOUDY    69  69  98 SE5       29.86F
MOUNT PLEASANT CLOUDY    67  63  87 SE5       29.84F
MUSKEGON       MOCLDY    72  70  93 SE10      29.78F
STURGIS        CLOUDY    71  70  97 S7        29.86R
$$
MIZ016>042-171200-
NORTHERN LOWER MICHIGAN

CITY           SKY/WX    TMP DP  RH WIND       PRES   REMARKS
ALPENA         CLOUDY    68  66  93 SE12      29.90F
BEAVER ISLAND  RAIN      65  64  94 E12       29.78F
BELLAIRE       RAIN      65  62  88 CALM      29.80F
CADILLAC       CLOUDY    65  62  88 SE9       29.82F
CHARLEVOIX     HVY RAIN  65  64  97 SE14      29.83F
GAYLORD        HVY RAIN  62  60  93 SE13      29.87F FOG
HOUGHTON LAKE  LGT RAIN  63  61  93 SE9       29.87F
MANISTEE       CLOUDY    66  66 100 SE8       29.74
OSCODA         CLOUDY    69  62  77 S7        29.89F
PELLSTON       LGT RAIN  64  62  93 SE10      29.84F
TRAVERSE CITY  LGT RAIN  66  63  90 VRB7      29.76F
LUDINGTON      CLOUDY    69  67  93 SE8       29.74F
$$
MIZ007>008-015-171200-
EASTERN UPPER MICHIGAN

CITY           SKY/WX    TMP DP  RH WIND       PRES   REMARKS
KINROSS        LGT RAIN  64  58  80 E15       29.88
MACKINAC ISLAN RAIN      64  64 100 E12       29.85F
NEWBERRY       LGT RAIN  62  61  97 E10       29.83F
S. S. MARIE    CLOUDY    65  57  75 E9G16     29.88F
$$
MIZ004>006-011>014-085-171200-
CENTRAL UPPER MICHIGAN

CITY           SKY/WX    TMP DP  RH WIND       PRES   REMARKS
MANISTIQUE     LGT RAIN  64  58  81 E13       29.74F
ESCANABA       LGT RAIN  68  68 100 SE8       29.70
MENOMINEE      CLOUDY    71  69  93 S12       29.68
SAWYER-GWINN   RAIN      63  61  94 SE13G18   29.74F
$$
MIZ001>003-009>011-084-171200-
WESTERN UPPER MICHIGAN

CITY           SKY/WX    TMP DP  RH WIND       PRES   REMARKS
IRON MOUNTAIN  CLOUDY    67  64  90 E9        29.68F
HOUGHTON       LGT RAIN  62  60  93 E12       29.71F FOG
COPPER HARBOR    N/A     63  61  93 S8        29.74F
IRONWOOD       CLOUDY    63  61  94 E9        29.64
$$

ABBREVIATIONS USED IN REMARKS
   TC - TEMPERATURE IN CELSIUS
  WCI - WIND CHILL INDEX
   HX - HEAT INDEX
  VSB - VISIBILITY





USA.gov is the U.S. government's official web portal to all federal, state and local government web resources and services.